BRX71D ESGG-ESSB

Flight info

Callsign BRX71D
Flight time 0h 43m
Altitude 25000
Route LABAN Y430 TINKA
Aircraft RJ1H/M-SDFGIRWY/LB1

Departure

Time 2026-05-07 14:52
Airport Göteborg Landvetter Airport (ESGG)

Arrival

Time 2026-05-07 15:35
Airport Stockholm-Bromma Airport (ESSB)
Time Latitude Longitude Altitude Speed Heading
2026-05-07 14:21 57.66887 12.29426 516 ft 0 kts 116°
2026-05-07 14:42 57.66894 12.29397 516 ft 4 kts 116°
2026-05-07 14:42 57.66906 12.29353 516 ft 3 kts 116°
2026-05-07 14:42 57.66913 12.29316 516 ft 4 kts 91°
2026-05-07 14:43 57.66902 12.29282 516 ft 3 kts 26°
2026-05-07 14:43 57.66886 12.29268 516 ft 0 kts 26°
2026-05-07 14:47 57.66889 12.29270 515 ft 2 kts 26°
2026-05-07 14:47 57.66912 12.29292 516 ft 6 kts 26°
2026-05-07 14:47 57.66958 12.29331 516 ft 8 kts
2026-05-07 14:47 57.66992 12.29270 516 ft 7 kts 297°
2026-05-07 14:48 57.67020 12.29196 516 ft 8 kts 330°
2026-05-07 14:48 57.67088 12.29226 516 ft 13 kts 26°
2026-05-07 14:48 57.67178 12.29308 516 ft 15 kts 26°
2026-05-07 14:48 57.67268 12.29390 515 ft 14 kts 25°
2026-05-07 14:49 57.67347 12.29461 516 ft 12 kts 25°
2026-05-07 14:49 57.67411 12.29466 515 ft 9 kts 316°
2026-05-07 14:49 57.67443 12.29351 515 ft 9 kts 295°
2026-05-07 14:49 57.67460 12.29250 515 ft 8 kts 274°
2026-05-07 14:50 57.67456 12.29137 514 ft 12 kts 264°
2026-05-07 14:50 57.67460 12.29051 515 ft 3 kts 234°
2026-05-07 14:50 57.67436 12.29029 515 ft 16 kts 205°
2026-05-07 14:50 57.67187 12.28804 514 ft 62 kts 206°
2026-05-07 14:51 57.66681 12.28342 512 ft 99 kts 206°
2026-05-07 14:51 57.65973 12.27692 507 ft 126 kts 205°
2026-05-07 14:51 57.65153 12.26913 605 ft 135 kts 213°
2026-05-07 14:51 57.64340 12.26095 964 ft 129 kts 215°
2026-05-07 14:52 57.63497 12.25314 1190 ft 141 kts 208°
2026-05-07 14:52 57.62586 12.24574 1440 ft 143 kts 206°
2026-05-07 14:52 57.61654 12.23852 1663 ft 146 kts 208°
2026-05-07 14:52 57.60731 12.23115 2001 ft 143 kts 207°
2026-05-07 14:53 57.59807 12.22353 2176 ft 147 kts 208°
2026-05-07 14:53 57.58831 12.21560 2344 ft 160 kts 207°
2026-05-07 14:53 57.57795 12.20701 2535 ft 172 kts 204°
2026-05-07 14:53 57.56572 12.20658 2732 ft 186 kts 156°
2026-05-07 14:54 57.55669 12.22351 2933 ft 196 kts 112°
2026-05-07 14:54 57.55503 12.24888 3097 ft 206 kts 89°
2026-05-07 14:54 57.55461 12.27695 3347 ft 222 kts 85°
2026-05-07 14:54 57.55873 12.30417 3921 ft 219 kts 65°
2026-05-07 14:55 57.56518 12.32992 4502 ft 219 kts 66°
2026-05-07 14:55 57.57149 12.35623 4907 ft 229 kts 66°
2026-05-07 14:55 57.57811 12.38432 5137 ft 244 kts 66°
2026-05-07 14:55 57.58501 12.41423 5385 ft 258 kts 67°
2026-05-07 14:56 57.59212 12.44573 5713 ft 268 kts 68°
2026-05-07 14:56 57.59923 12.47828 6185 ft 272 kts 68°
2026-05-07 14:56 57.60639 12.51120 6700 ft 275 kts 68°
2026-05-07 14:56 57.61355 12.54445 7206 ft 278 kts 68°
2026-05-07 14:57 57.62105 12.57800 7719 ft 282 kts 62°
2026-05-07 14:57 57.63406 12.60506 8246 ft 282 kts 33°
2026-05-07 14:57 57.65037 12.62568 8852 ft 285 kts 32°
2026-05-07 14:57 57.66694 12.64654 9444 ft 289 kts 31°
2026-05-07 14:58 57.68384 12.66733 10089 ft 291 kts 31°
2026-05-07 14:58 57.70094 12.68794 10723 ft 293 kts 31°
2026-05-07 14:58 57.71794 12.70862 11358 ft 297 kts 30°
2026-05-07 14:58 57.73528 12.73003 12032 ft 300 kts 31°
2026-05-07 14:59 57.75275 12.75184 12709 ft 303 kts 31°
2026-05-07 14:59 57.77030 12.77421 13377 ft 307 kts 32°
2026-05-07 14:59 57.78801 12.79710 13990 ft 310 kts 32°
2026-05-07 14:59 57.80593 12.82013 14492 ft 315 kts 31°
2026-05-07 15:00 57.82455 12.84380 14622 ft 330 kts 32°
2026-05-07 15:00 57.84388 12.86875 14723 ft 345 kts 32°
2026-05-07 15:00 57.86391 12.89461 14922 ft 352 kts 32°
2026-05-07 15:00 57.88385 12.92056 15262 ft 355 kts 32°
2026-05-07 15:01 57.90421 12.94714 15623 ft 357 kts 32°
2026-05-07 15:01 57.92399 12.97557 15942 ft 362 kts 43°
2026-05-07 15:01 57.94043 13.01185 16276 ft 366 kts 50°
2026-05-07 15:01 57.95590 13.04997 16613 ft 368 kts 51°
2026-05-07 15:02 57.97137 13.08868 16945 ft 370 kts 51°
2026-05-07 15:02 57.98686 13.12779 17283 ft 373 kts 51°
2026-05-07 15:02 58.00244 13.16699 17607 ft 375 kts 50°
2026-05-07 15:02 58.01826 13.20633 17939 ft 377 kts 50°
2026-05-07 15:03 58.03420 13.24588 18263 ft 379 kts 50°
2026-05-07 15:03 58.05043 13.28536 18567 ft 381 kts 50°
2026-05-07 15:03 58.06674 13.32488 18859 ft 383 kts 50°
2026-05-07 15:03 58.08310 13.36477 19145 ft 385 kts 50°
2026-05-07 15:04 58.09912 13.40461 19428 ft 386 kts 50°
2026-05-07 15:04 58.11552 13.44495 19705 ft 388 kts 50°
2026-05-07 15:04 58.13208 13.48546 19987 ft 389 kts 50°
2026-05-07 15:04 58.14869 13.52610 20264 ft 391 kts 50°
2026-05-07 15:05 58.16523 13.56722 20543 ft 393 kts 50°
2026-05-07 15:05 58.18173 13.60862 20815 ft 395 kts 50°
2026-05-07 15:05 58.19847 13.65006 21083 ft 396 kts 50°
2026-05-07 15:05 58.21526 13.69159 21346 ft 398 kts 50°
2026-05-07 15:06 58.23214 13.73340 21613 ft 400 kts 50°
2026-05-07 15:06 58.24890 13.77569 21874 ft 402 kts 50°
2026-05-07 15:06 58.26587 13.81816 22124 ft 404 kts 50°
2026-05-07 15:06 58.28295 13.86068 22379 ft 406 kts 50°
2026-05-07 15:07 58.30011 13.90363 22582 ft 409 kts 50°
2026-05-07 15:07 58.31730 13.94686 22831 ft 410 kts 50°
2026-05-07 15:07 58.33430 13.98983 23072 ft 412 kts 50°
2026-05-07 15:07 58.35155 14.03345 23315 ft 414 kts 50°
2026-05-07 15:08 58.36885 14.07737 23552 ft 415 kts 50°
2026-05-07 15:08 58.38624 14.12159 23761 ft 417 kts 50°
2026-05-07 15:08 58.40363 14.16592 23965 ft 418 kts 50°
2026-05-07 15:08 58.42103 14.21037 24170 ft 419 kts 50°
2026-05-07 15:09 58.43849 14.25505 24382 ft 420 kts 50°
2026-05-07 15:09 58.45595 14.29984 24581 ft 421 kts 50°
2026-05-07 15:09 58.47349 14.34496 24724 ft 424 kts 50°
2026-05-07 15:09 58.49107 14.39011 24933 ft 422 kts 49°
2026-05-07 15:10 58.50880 14.43496 25065 ft 424 kts 49°
2026-05-07 15:10 58.52643 14.48004 25066 ft 420 kts 49°
2026-05-07 15:10 58.54392 14.52473 25067 ft 420 kts 49°
2026-05-07 15:10 58.56133 14.56962 25071 ft 420 kts 50°
2026-05-07 15:11 58.57841 14.61421 25074 ft 420 kts 50°
2026-05-07 15:11 58.59590 14.66004 25077 ft 421 kts 50°
2026-05-07 15:11 58.61312 14.70477 25078 ft 422 kts 49°
2026-05-07 15:11 58.63068 14.74992 25080 ft 422 kts 50°
2026-05-07 15:12 58.64806 14.79536 25082 ft 422 kts 50°
2026-05-07 15:12 58.66536 14.84084 25083 ft 423 kts 50°
2026-05-07 15:12 58.68268 14.88655 25085 ft 423 kts 50°
2026-05-07 15:12 58.70012 14.93208 25086 ft 423 kts 49°
2026-05-07 15:13 58.71769 14.97769 25089 ft 424 kts 50°
2026-05-07 15:13 58.73504 15.02344 25102 ft 424 kts 50°
2026-05-07 15:13 58.75255 15.06948 25094 ft 426 kts 49°
2026-05-07 15:13 58.77015 15.11551 25084 ft 427 kts 49°
2026-05-07 15:14 58.78762 15.16174 25079 ft 427 kts 50°
2026-05-07 15:14 58.80490 15.20810 25076 ft 426 kts 50°
2026-05-07 15:14 58.82226 15.25446 25073 ft 426 kts 50°
2026-05-07 15:14 58.83980 15.30071 25063 ft 427 kts 49°
2026-05-07 15:15 58.85725 15.34725 25063 ft 427 kts 50°
2026-05-07 15:15 58.87456 15.39393 25062 ft 428 kts 50°
2026-05-07 15:15 58.89189 15.44076 25054 ft 429 kts 50°
2026-05-07 15:15 58.90934 15.48792 24738 ft 432 kts 50°
2026-05-07 15:16 58.92689 15.53532 24215 ft 434 kts 50°
2026-05-07 15:16 58.94451 15.58283 23611 ft 433 kts 50°
2026-05-07 15:16 58.96212 15.63014 22805 ft 434 kts 50°
2026-05-07 15:16 58.97977 15.67745 22018 ft 431 kts 50°
2026-05-07 15:17 58.99700 15.72395 21269 ft 429 kts 50°
2026-05-07 15:17 59.01441 15.77083 20525 ft 426 kts 51°
2026-05-07 15:17 59.03168 15.81735 19799 ft 423 kts 51°
2026-05-07 15:17 59.04870 15.86378 19090 ft 420 kts 51°
2026-05-07 15:18 59.06542 15.90978 18614 ft 410 kts 51°
2026-05-07 15:18 59.08155 15.95438 18310 ft 397 kts 51°
2026-05-07 15:18 59.09721 15.99765 17903 ft 386 kts 51°
2026-05-07 15:18 59.11274 16.03977 17358 ft 381 kts 51°
2026-05-07 15:19 59.12797 16.08166 16809 ft 376 kts 51°
2026-05-07 15:19 59.14297 16.12324 16256 ft 372 kts 51°
2026-05-07 15:19 59.15776 16.16431 15714 ft 368 kts 52°
2026-05-07 15:19 59.17241 16.20501 15215 ft 364 kts 51°
2026-05-07 15:20 59.18682 16.24518 14690 ft 360 kts 51°
2026-05-07 15:20 59.19611 16.27191 14351 ft 359 kts 56°
2026-05-07 15:20 59.20455 16.31762 13816 ft 361 kts 79°
2026-05-07 15:20 59.20680 16.36619 13266 ft 358 kts 85°
2026-05-07 15:21 59.20784 16.42980 12366 ft 350 kts 88°
2026-05-07 15:21 59.20783 16.47698 11657 ft 344 kts 90°
2026-05-07 15:21 59.20762 16.50841 11187 ft 340 kts 90°
2026-05-07 15:21 59.20736 16.55388 10724 ft 328 kts 90°
2026-05-07 15:22 59.20725 16.59737 10511 ft 314 kts 90°
2026-05-07 15:22 59.20717 16.63855 10391 ft 302 kts 90°
2026-05-07 15:22 59.20713 16.67989 10095 ft 299 kts 90°
2026-05-07 15:22 59.20712 16.72020 9745 ft 296 kts 90°
2026-05-07 15:23 59.20716 16.76027 9422 ft 294 kts 90°
2026-05-07 15:23 59.20717 16.79948 9120 ft 292 kts 90°
2026-05-07 15:23 59.20719 16.83899 8821 ft 290 kts 90°
2026-05-07 15:23 59.20722 16.87829 8522 ft 288 kts 90°
2026-05-07 15:24 59.20731 16.91732 8233 ft 287 kts 89°
2026-05-07 15:24 59.20724 16.95669 7835 ft 291 kts 89°
2026-05-07 15:24 59.20755 16.99585 7476 ft 287 kts 82°
2026-05-07 15:24 59.21404 17.03174 7113 ft 278 kts 53°
2026-05-07 15:25 59.22552 17.06177 6763 ft 275 kts 49°
2026-05-07 15:25 59.23728 17.09101 6414 ft 273 kts 49°
2026-05-07 15:25 59.24919 17.11966 6050 ft 270 kts 47°
2026-05-07 15:25 59.26134 17.14825 5650 ft 275 kts 47°
2026-05-07 15:26 59.27352 17.17699 5345 ft 274 kts 48°
2026-05-07 15:26 59.28561 17.20574 5079 ft 272 kts 48°
2026-05-07 15:26 59.29751 17.23428 4824 ft 270 kts 49°
2026-05-07 15:26 59.30918 17.26294 4576 ft 269 kts 49°
2026-05-07 15:27 59.32075 17.29154 4343 ft 267 kts 51°
2026-05-07 15:27 59.33211 17.31967 4113 ft 266 kts 51°
2026-05-07 15:27 59.34352 17.34815 3910 ft 264 kts 51°
2026-05-07 15:27 59.35474 17.37657 3724 ft 263 kts 51°
2026-05-07 15:28 59.36593 17.40488 3546 ft 262 kts 51°
2026-05-07 15:28 59.37707 17.43324 3363 ft 261 kts 51°
2026-05-07 15:28 59.38813 17.46149 3181 ft 261 kts 52°
2026-05-07 15:28 59.39924 17.48962 3016 ft 260 kts 52°
2026-05-07 15:29 59.41011 17.51718 2938 ft 249 kts 52°
2026-05-07 15:29 59.42050 17.54343 2877 ft 238 kts 52°
2026-05-07 15:29 59.43049 17.56856 2817 ft 229 kts 52°
2026-05-07 15:29 59.44004 17.59286 2772 ft 220 kts 54°
2026-05-07 15:30 59.44488 17.62013 2739 ft 213 kts 92°
2026-05-07 15:30 59.44371 17.64919 2714 ft 214 kts 95°
2026-05-07 15:30 59.44244 17.67831 2659 ft 212 kts 96°
2026-05-07 15:30 59.43956 17.70615 2585 ft 205 kts 116°
2026-05-07 15:31 59.43074 17.72735 2533 ft 198 kts 133°
2026-05-07 15:31 59.42315 17.74852 2543 ft 185 kts 122°
2026-05-07 15:31 59.41633 17.76832 2523 ft 169 kts 127°
2026-05-07 15:31 59.40951 17.78701 2156 ft 163 kts 127°
2026-05-07 15:32 59.40323 17.80450 1891 ft 152 kts 127°
2026-05-07 15:32 59.39750 17.82083 1655 ft 137 kts 130°
2026-05-07 15:32 59.39222 17.83518 1420 ft 124 kts 126°
2026-05-07 15:32 59.38739 17.84871 1233 ft 119 kts 126°
2026-05-07 15:33 59.38292 17.86195 1049 ft 115 kts 127°
2026-05-07 15:33 59.37822 17.87467 849 ft 116 kts 128°
2026-05-07 15:33 59.37352 17.88760 699 ft 115 kts 124°
2026-05-07 15:33 59.36901 17.90051 517 ft 116 kts 126°
2026-05-07 15:34 59.36442 17.91354 303 ft 115 kts 127°
2026-05-07 15:34 59.35985 17.92626 122 ft 113 kts 126°
2026-05-07 15:34 59.35558 17.93818 42 ft 98 kts 126°
2026-05-07 15:34 59.35220 17.94767 40 ft 70 kts 126°
2026-05-07 15:35 59.35011 17.95347 39 ft 30 kts 125°
2026-05-07 15:35 59.34980 17.95524 37 ft 9 kts 40°
2026-05-07 15:35 59.35033 17.95529 38 ft 6 kts 352°
2026-05-07 15:35 59.35089 17.95515 40 ft 11 kts 353°
2026-05-07 15:36 59.35160 17.95448 40 ft 11 kts 304°
2026-05-07 15:36 59.35203 17.95328 40 ft 10 kts 305°
2026-05-07 15:36 59.35241 17.95222 40 ft 9 kts 304°
2026-05-07 15:36 59.35274 17.95130 40 ft 8 kts 304°
2026-05-07 15:37 59.35299 17.95038 40 ft 9 kts 282°
2026-05-07 15:37 59.35310 17.94875 40 ft 14 kts 289°
2026-05-07 15:37 59.35361 17.94724 40 ft 13 kts 304°
2026-05-07 15:37 59.35409 17.94589 40 ft 12 kts 306°
2026-05-07 15:38 59.35456 17.94460 40 ft 11 kts 304°
2026-05-07 15:38 59.35497 17.94340 40 ft 10 kts 304°
2026-05-07 15:38 59.35535 17.94235 40 ft 9 kts 306°
2026-05-07 15:38 59.35573 17.94155 40 ft 7 kts 339°
2026-05-07 15:39 59.35617 17.94130 40 ft 6 kts 343°
2026-05-07 15:39 59.35666 17.94105 40 ft 8 kts 355°
2026-05-07 15:39 59.35712 17.94165 40 ft 8 kts 71°
2026-05-07 15:39 59.35690 17.94252 40 ft 7 kts 126°
2026-05-07 15:40 59.35665 17.94320 40 ft 5 kts 126°
2026-05-07 15:40 59.35642 17.94365 40 ft 4 kts 141°
2026-05-07 15:40 59.35617 17.94392 40 ft 4 kts 186°
2026-05-07 15:40 59.35605 17.94357 40 ft 2 kts 261°
2026-05-07 15:41 59.35605 17.94342 40 ft 1 kts 271°
2026-05-07 15:41 59.35605 17.94336 40 ft 0 kts 271°